Location: Gleizolles
(44.4833°N, 6.7667°E)
Time: 16:52:57
(UTC+00:00)

Tiros 1 - Pass Details

Date: 01 July 2024
Orbit: 624 x 656 km, 48.4° (Epoch: 13 July)

Event Time Altitude Azimuth Distance (km) Brightness Sun altitude
Rises 00:34:07 0° 290° (WNW) 2,905 10.6 -21.2°
Reaches altitude 10° 00:36:26 10° 293° (WNW) 1,999 9.7 -21.1°
Maximum altitude 00:41:02 73° 18° (NNE) 658 7.2 -20.9°
Drops below altitude 10° 00:45:39 10° 104° (ESE) 2,007 9.7 -20.6°
Sets 00:47:59 0° 106° (ESE) 2,918 10.5 -20.5°
